FW7164 Weather Reports


time (UTC)temp
C
wind
direction
speed
KPH
gust
KPH
rain 1hr
cm
rain 24hr
cm
rain mn
cm
humidity
%
barometer
mb
20260505035541 6 360 0.0 0.0 0.00 0.03 0.03 88 1007.9
20260505035040 6 360 0.0 0.0 0.00 0.03 0.03 89 1007.7
20260505034535 6 360 0.0 0.0 0.00 0.03 0.03 89 1007.6
20260505034011 6 360 0.0 0.0 0.03 0.03 0.03 88 1007.7
20260505033506 6 360 0.0 0.0 0.03 0.03 0.03 88 1007.6
20260505033002 6 360 0.0 0.0 0.03 0.03 0.03 89 1007.4
20260505032551 6 360 0.0 0.0 0.03 0.03 0.03 88 1007.4
20260505032047 6 360 0.0 0.0 0.03 0.03 0.03 87 1007.4
20260505031542 6 360 0.0 0.0 0.03 0.03 0.03 85 1007.3
20260505031034 6 360 0.0 0.0 0.03 0.03 0.03 86 1007.0
20260505030528 6 360 0.0 0.0 0.03 0.03 0.03 87 1006.8
20260505030023 6 360 0.0 0.0 0.03 0.03 0.03 85 1006.8
20260505025516 7 360 0.0 0.0 0.03 0.03 0.03 82 1006.9
20260505025010 7 360 0.0 0.0 0.03 0.03 0.03 81 1006.9
20260505024505 7 360 0.0 0.0 0.03 0.03 0.03 78 1006.8
20260505024059 7 360 0.0 0.0 0.00 0.00 0.00 76 1006.9
20260505023553 7 360 0.0 0.0 0.00 0.00 0.00 75 1006.8
20260505023048 7 360 0.0 0.0 0.00 0.00 0.00 73 1006.8
20260505022543 7 360 0.0 0.0 0.00 0.00 0.00 73 1006.7
20260505022038 7 360 0.0 0.0 0.00 0.00 0.00 72 1006.4
20260505021535 7 360 0.0 0.0 0.00 0.00 0.00 72 1006.3
20260505021027 7 360 0.0 0.0 0.00 0.00 0.00 72 1006.4
20260505020522 7 360 0.0 0.0 0.00 0.00 0.00 72 1006.4
20260505020009 7 360 0.0 0.0 0.00 0.00 0.00 72 1006.3
20260505015503 7 360 0.0 0.0 0.00 0.00 0.00 72 1006.3
20260505015059 7 360 0.0 0.0 0.00 0.00 0.00 71 1006.3
20260505014554 7 360 0.0 0.0 0.00 0.00 0.00 71 1006.2
20260505014048 7 360 0.0 0.0 0.00 0.00 0.00 70 1006.1
20260505013547 8 360 0.0 0.0 0.00 0.00 0.00 70 1006.1
20260505013040 8 360 0.0 0.0 0.00 0.00 0.00 70 1006.0
20260505012534 8 360 0.0 0.0 0.00 0.00 0.00 70 1005.9
20260505012028 8 360 0.0 0.0 0.00 0.00 0.00 70 1006.2
20260505011522 8 360 0.0 6.4 0.00 0.00 0.00 70 1006.3
20260505011018 8 360 0.0 6.4 0.00 0.00 0.00 68 1006.1
20260505010513 8 360 0.0 0.0 0.00 0.00 0.00 69 1006.0
20260505010014 9 360 0.0 3.2 0.00 0.00 0.00 68 1005.8
20260505005503 9 360 0.0 3.2 0.00 0.00 0.00 70 1005.7
20260505005100 9 360 0.0 0.0 0.00 0.00 0.00 68 1005.9
20260505004554 9 360 0.0 0.0 0.00 0.00 0.00 71 1005.7
20260505004047 9 360 0.0 0.0 0.00 0.00 0.00 69 1005.8
20260505003542 10 360 0.0 0.0 0.00 0.00 0.00 67 1005.9
20260505003046 10 360 0.0 0.0 0.00 0.00 0.00 63 1005.9
20260505002534 10 360 0.0 4.8 0.00 0.00 0.00 60 1006.0
20260505002025 11 360 0.0 6.4 0.00 0.00 0.00 58 1006.0
20260505001520 11 360 3.2 6.4 0.00 0.00 0.00 55 1006.1
20260505001101 11 360 0.0 0.0 0.00 0.00 0.00 54 1005.8
20260505000555 11 360 0.0 0.0 0.00 0.00 0.00 53 1005.8
20260505000059 11 360 0.0 4.8 0.00 0.00 0.00 55 1005.6
20260504235550 11 360 0.0 12.9 0.00 0.00 0.00 53 1005.5
20260504235042 11 360 4.8 12.9 0.00 0.00 0.00 50 1005.4
20260504234536 11 360 0.0 0.0 0.00 0.00 0.00 52 1005.2
20260504234031 11 360 0.0 8.0 0.00 0.00 0.00 52 1005.1
20260504233529 11 360 1.6 8.0 0.00 0.00 0.00 50 1004.8
20260504233022 11 360 0.0 1.6 0.00 0.00 0.00 53 1004.7
20260504232556 11 360 0.0 4.8 0.00 0.00 0.00 52 1004.8
20260504232050 12 360 0.0 8.0 0.00 0.00 0.00 47 1004.5
20260504231544 12 360 0.0 14.5 0.00 0.00 0.00 46 1004.0
20260504231039 12 360 3.2 24.1 0.00 0.00 0.00 44 1003.7
20260504230535 13 360 8.0 24.1 0.00 0.00 0.00 41 1003.5
20260504230029 13 360 6.4 14.5 0.00 0.00 0.00 39 1003.4
20260504225524 15 360 1.6 19.3 0.00 0.00 0.00 36 1003.3
20260504225017 15 360 3.2 16.1 0.00 0.00 0.00 33 1003.2
20260504224522 15 360 3.2 8.0 0.00 0.00 0.00 32 1002.9
20260504224009 15 360 3.2 9.7 0.00 0.00 0.00 32 1002.7
20260504223503 16 360 0.0 11.3 0.00 0.00 0.00 32 1002.7
20260504223108 16 152 3.2 11.3 0.00 0.00 0.00 33 1002.8
20260504222554 16 143 3.2 11.3 0.00 0.00 0.00 33 1002.8
20260504222048 16 163 4.8 11.3 0.00 0.00 0.00 33 1002.7
20260504221545 16 154 1.6 8.0 0.00 0.00 0.00 33 1002.9
20260504221038 16 83 0.0 0.0 0.00 0.00 0.00 33 1002.9
20260504220534 16 225 0.0 6.4 0.00 0.00 0.00 34 1002.6
20260504220029 16 238 0.0 12.9 0.00 0.00 0.00 34 1002.8
20260504215527 16 187 4.8 12.9 0.00 0.00 0.00 34 1002.8
20260504215017 16 161 3.2 11.3 0.00 0.00 0.00 34 1002.7
20260504214510 16 261 0.0 11.3 0.00 0.00 0.00 33 1002.9
20260504214004 16 159 4.8 11.3 0.00 0.00 0.00 33 1002.8
20260504213600 16 172 4.8 11.3 0.00 0.00 0.00 33 1002.9
20260504213101 16 233 3.2 8.0 0.00 0.00 0.00 34 1002.9
20260504212548 16 253 0.0 6.4 0.00 0.00 0.00 34 1002.9
20260504212040 16 168 3.2 11.3 0.00 0.00 0.00 34 1003.0
20260504211536 16 49 0.0 11.3 0.00 0.00 0.00 35 1003.1
20260504211029 16 114 0.0 0.0 0.00 0.00 0.00 36 1003.3
20260504210525 16 164 0.0 0.0 0.00 0.00 0.00 36 1003.4
20260504210021 16 360 0.0 0.0 0.00 0.00 0.00 36 1003.3
20260504205514 16 360 0.0 0.0 0.00 0.00 0.00 37 1003.5
20260504205009 16 11 0.0 0.0 0.00 0.00 0.00 36 1003.5
20260504204504 16 360 0.0 0.0 0.00 0.00 0.00 36 1003.3
20260504204102 16 198 0.0 0.0 0.00 0.00 0.00 36 1003.2
20260504203555 16 67 0.0 0.0 0.00 0.00 0.00 35 1003.3
20260504203050 16 146 0.0 0.0 0.00 0.00 0.00 35 1003.3
20260504202544 17 172 0.0 0.0 0.00 0.00 0.00 34 1003.2
20260504202039 16 87 0.0 0.0 0.00 0.00 0.00 35 1003.1
20260504201533 16 360 0.0 0.0 0.00 0.00 0.00 34 1003.2
20260504201030 16 102 0.0 0.0 0.00 0.00 0.00 34 1003.3
20260504200527 16 13 0.0 0.0 0.00 0.00 0.00 33 1003.2
20260504200020 17 141 0.0 4.8 0.00 0.00 0.00 32 1003.2
20260504195512 17 90 0.0 14.5 0.00 0.00 0.00 33 1003.2
20260504195007 17 36 0.0 16.1 0.00 0.00 0.00 31 1003.2
20260504194501 18 148 3.2 17.7 0.00 0.00 0.00 29 1003.0
20260504194057 18 259 3.2 17.7 0.00 0.00 0.00 29 1002.9
20260504193552 18 92 4.8 14.5 0.00 0.00 0.00 29 1002.9
20260504193049 19 132 1.6 11.3 0.00 0.00 0.00 23 1003.0
20260504192531 19 276 4.8 12.9 0.00 0.00 0.00 24 1003.0
20260504192030 20 128 4.8 12.9 0.00 0.00 0.00 23 1003.1
20260504191522 19 149 3.2 14.5 0.00 0.00 0.00 24 1003.1
20260504191018 19 157 3.2 11.3 0.00 0.00 0.00 25 1003.3
20260504190515 19 254 0.0 12.9 0.00 0.00 0.00 26 1003.3
20260504190004 19 223 6.4 12.9 0.00 0.00 0.00 26 1003.5
20260504185558 18 140 4.8 14.5 0.00 0.00 0.00 26 1003.4
20260504185052 18 244 3.2 16.1 0.00 0.00 0.00 28 1003.6
20260504184545 17 18 4.8 16.1 0.00 0.00 0.00 29 1003.5
20260504184040 16 171 0.0 9.7 0.00 0.00 0.00 27 1003.7
20260504183534 16 161 1.6 9.7 0.00 0.00 0.00 29 1003.7
20260504183034 16 88 1.6 12.9 0.00 0.00 0.00 28 1003.7
20260504182521 16 294 0.0 0.0 0.00 0.00 0.00 27 1003.8
20260504182021 16 307 0.0 3.2 0.00 0.00 0.00 28 1004.0
20260504181510 17 185 0.0 14.5 0.00 0.00 0.00 28 1004.0
20260504181004 17 130 0.0 14.5 0.00 0.00 0.00 27 1004.2
20260504180600 17 25 3.2 11.3 0.00 0.00 0.00 26 1004.3
20260504180054 17 196 1.6 16.1 0.00 0.00 0.00 25 1004.2
20260504175548 17 244 1.6 19.3 0.00 0.00 0.00 23 1004.3
20260504175046 17 167 4.8 20.9 0.00 0.00 0.00 23 1004.4
20260504174537 17 198 0.0 8.0 0.00 0.00 0.00 23 1004.5
20260504174031 17 236 0.0 14.5 0.00 0.00 0.00 22 1004.6
20260504173528 17 285 0.0 8.0 0.00 0.00 0.00 25 1004.9
20260504173018 17 234 0.0 8.0 0.00 0.00 0.00 27 1004.7
20260504172516 17 24 0.0 6.4 0.00 0.00 0.00 26 1004.9
20260504172006 17 35 0.0 0.0 0.00 0.00 0.00 26 1005.1
20260504171502 17 287 0.0 8.0 0.00 0.00 0.00 26 1005.2
20260504171059 17 115 0.0 8.0 0.00 0.00 0.00 26 1005.4
20260504170550 17 183 0.0 6.4 0.00 0.00 0.00 26 1005.4
20260504151037 7 360 0.0 0.0 0.00 0.00 0.00 51 1007.4
20260504150531 7 360 0.0 0.0 0.00 0.00 0.00 53 1007.6
20260504141013 3 360 0.0 0.0 0.00 0.00 0.00 59 1008.3
20260504140502 3 360 0.0 0.0 0.00 0.00 0.00 62 1008.2
20260504130553 1 360 0.0 0.0 0.00 0.00 0.00 69 1008.4
20260504110522 1 360 0.0 0.0 0.00 0.00 0.00 62 1008.4
20260504100515 2 360 0.0 0.0 0.00 0.00 0.00 60 1008.6
20260504081546 5 360 0.0 0.0 0.00 0.00 0.00 51 1009.1
20260504081038 5 360 0.0 0.0 0.00 0.00 0.00 51 1009.1
20260504080533 5 360 0.0 0.0 0.00 0.00 0.00 51 1009.2
20260504050548 8 360 0.0 0.0 0.00 0.00 0.00 45 1010.0
20260504045529 9 360 0.0 0.0 0.00 0.00 0.00 42 1010.0
20260504045032 9 360 0.0 0.0 0.00 0.00 0.00 43 1010.1
20260504044522 9 360 0.0 0.0 0.00 0.00 0.00 42 1010.1
20260504044015 9 360 0.0 0.0 0.00 0.00 0.00 43 1010.1
20260504043510 8 360 0.0 0.0 0.00 0.00 0.00 44 1010.2
20260504043010 9 360 0.0 0.0 0.00 0.00 0.00 45 1010.2
20260504042601 9 360 0.0 0.0 0.00 0.00 0.00 43 1010.1
20260504042059 9 360 0.0 0.0 0.00 0.00 0.00 44 1010.2
20260504041551 9 360 0.0 0.0 0.00 0.00 0.00 43 1010.2
20260504041045 9 360 0.0 0.0 0.00 0.00 0.00 44 1010.2
20260504040541 10 360 0.0 0.0 0.00 0.00 0.00 43 1010.2
20260504040039 10 360 0.0 0.0 0.00 0.00 0.00 44 1010.3